Peoria, IL

5:33 AM CST on November 22, 2019 (GMT -0600)
Greater Peoria Regional

Weather History for KPIA - September, 2019

Change the Weather History Date:

Monday, September 16, 2019

  Actual Average Record
Temperature  
Mean Temperature 76 °F 66 °F  
Max Temperature 86 °F 77 °F 94 °F (1939)
Min Temperature 66 °F 55 °F 35 °F (1916)
Degree Days  
Heating Degree Days 0 2  
Month to date heating degree days 0 20  
Since 1 July heating degree days 0 26  
Cooling Degree Days 12 4  
Month to date cooling degree days 123 85  
Year to date cooling degree days 1105 992  
Growing Degree Days 26 (Base 50)    
Moisture  
Dew Point 67 °F    
Average Humidity 81    
Maximum Humidity 97    
Minimum Humidity 53    
Precipitation  
Precipitation 0.00 in 0.11 in 2.15 in (1980)
Month to date precipitation 1.76 1.76  
Year to date precipitation 35.28 26.71  
Snow  
Snow 0.00 in 0.00 in 0.00 in ()
Month to date snowfall 0.0 0.0  
Since 1 July snowfall 0.0 0.0  
Since 1 September snowfall 0.0 0.0  
Snow Depth 0.00 in    
Sea Level Pressure  
Sea Level Pressure 30.07 in    
Wind  
Wind Speed 3 mph ()    
Max Wind Speed 13 mph    
Max Gust Speed 17 mph    
Visibility 6.7 miles    
Events      
T = Trace of Precipitation, MM = Missing Value Source: Averaged Metar Reports

Daily Weather History Graph

Daily Weather History Graph

Search for Another Location

Airport or City:

Astronomy

Sep. 16, 2019 Rise Set
Actual Time 6:40 AM CDT 7:06 PM CDT
Civil Twilight 6:12 AM CDT 7:33 PM CDT
Nautical Twilight 5:40 AM CDT 8:05 PM CDT
Astronomical Twilight 5:07 AM CDT 8:38 PM CDT
Moon 8:40 PM CDT (9/16) 8:47 AM CDT (9/16)
Length of Visible Light 13h 20m
Length of Day
12h 26m
Waning Gibbous, 94% of the Moon is Illuminated
Sep 16
Waning Gibbous
Sep 21
Last Quarter
Sep 28
New
Oct 5
First Quarter
Oct 13
Full

Hourly Weather History & Observations

Time (CDT) Temp. Heat Index Dew Point Humidity Pressure Visibility Wind Dir Wind Speed Gust Speed Precip Events Conditions
12:54 AM 71.1 °F - 69.1 °F 93% 30.02 in 5.0 mi Calm Calm - N/A   Clear
1:54 AM 70.0 °F - 68.0 °F 93% 30.03 in 4.0 mi Calm Calm - N/A   Clear
2:54 AM 70.0 °F - 66.9 °F 90% 30.03 in 5.0 mi Calm Calm - N/A   Clear
3:54 AM 69.1 °F - 66.9 °F 93% 30.04 in 2.5 mi Calm Calm - N/A   Clear
4:05 AM 69.1 °F - 66.0 °F 90% 30.06 in 1.2 mi Calm Calm - N/A   Clear
4:13 AM 69.1 °F - 66.0 °F 90% 30.06 in 2.0 mi Calm Calm - N/A   Clear
4:20 AM 69.1 °F - 66.0 °F 90% 30.06 in 5.0 mi Calm Calm - N/A   Clear
4:36 AM 69.8 °F - 66.2 °F 88% 30.06 in 2.0 mi Calm Calm - N/A   Clear
4:54 AM 68.0 °F - 66.0 °F 93% 30.05 in 2.5 mi Calm Calm - N/A   Clear
5:15 AM 68.0 °F - 66.0 °F 93% 30.06 in 3.0 mi Calm Calm - N/A   Clear
5:54 AM 68.0 °F - 66.0 °F 93% 30.05 in 4.0 mi NE 3.5 mph - N/A   Clear
6:54 AM 69.1 °F - 66.9 °F 93% 30.07 in 2.5 mi ENE 3.5 mph - N/A   Clear
7:54 AM 73.0 °F - 70.0 °F 90% 30.09 in 4.0 mi NE 4.6 mph - N/A   Scattered Clouds
8:49 AM 75.2 °F - 71.6 °F 89% 30.11 in 5.0 mi ENE 9.2 mph - N/A   Partly Cloudy
8:54 AM 75.0 °F - 71.1 °F 87% 30.10 in 5.0 mi ENE 8.1 mph - N/A   Scattered Clouds
9:03 AM 73.9 °F - 71.1 °F 91% 30.12 in 5.0 mi NE 5.8 mph - N/A   Mostly Cloudy
9:54 AM 75.9 °F - 71.1 °F 85% 30.11 in 7.0 mi ENE 5.8 mph - N/A   Mostly Cloudy
10:18 AM 78.8 °F - 71.6 °F 78% 30.12 in 10.0 mi ENE 10.4 mph - N/A   Scattered Clouds
10:54 AM 80.1 °F 83.6 °F 71.1 °F 74% 30.11 in 10.0 mi NE 9.2 mph - N/A   Scattered Clouds
11:54 AM 82.0 °F 86.3 °F 71.1 °F 69% 30.10 in 10.0 mi ENE 6.9 mph - N/A   Scattered Clouds
12:54 PM 82.9 °F 86.5 °F 69.1 °F 63% 30.09 in 10.0 mi NE 6.9 mph - N/A   Partly Cloudy
1:54 PM 84.0 °F 87.0 °F 68.0 °F 58% 30.07 in 10.0 mi East 4.6 mph - N/A   Clear
2:54 PM 84.9 °F 87.1 °F 66.0 °F 53% 30.06 in 10.0 mi NE 8.1 mph - N/A   Clear
3:54 PM 84.9 °F 87.1 °F 66.0 °F 53% 30.06 in 10.0 mi Variable 4.6 mph - N/A   Clear
4:54 PM 82.9 °F 85.4 °F 66.9 °F 58% 30.06 in 10.0 mi ENE 6.9 mph - N/A   Clear
5:54 PM 80.1 °F 82.1 °F 66.0 °F 62% 30.07 in 10.0 mi ENE 6.9 mph - N/A   Clear
6:54 PM 75.0 °F - 66.0 °F 73% 30.07 in 10.0 mi NE 6.9 mph - N/A   Clear
7:54 PM 72.0 °F - 66.0 °F 81% 30.07 in 10.0 mi NE 3.5 mph - N/A   Clear
8:54 PM 72.0 °F - 64.9 °F 78% 30.09 in 10.0 mi NE 5.8 mph - N/A   Clear
9:54 PM 70.0 °F - 64.0 °F 81% 30.09 in 10.0 mi Calm Calm - N/A   Clear
10:54 PM 69.1 °F - 63.0 °F 81% 30.09 in 10.0 mi ENE 4.6 mph - N/A   Clear
11:54 PM 66.9 °F - 63.0 °F 87% 30.09 in 10.0 mi Calm Calm - N/A   Clear